Погода в Суходоле

Россия / Волгоградская область     48°37′01″N   44°53′23″E
темп.,
°C
ветер,
м/с
пор.,
м/с
влажн.,
%
обл.,
%
осадки,
мм/ч
давл.,
гПа
погр.,
м
19 сентября, вс
вс1900:00+12в511475 0.0 1020273
03:00+11в511515 0.0 1020252
06:00+10вюв511545 0.0 1020244
09:00+17юв684737 0.0 1020629
12:00+22юв783230 0.0 10191741
15:00+22юв782797 0.0 10171836
18:00+19юв6103499 0.0 1017307
21:00+17вюв7153821 0.0 1017539
20 сентября, пн
пн2000:00+17юв61245100 0.0 1016621
03:00+15юв61155100 0.0 1016542
06:00+13юв5972100 1.3 1016427
09:00+12вюв61183100 2.5 1015409
12:00+15юв596486 0.3 1015566
15:00+18в465067 0.4 1013376
18:00+17всв3458100 0.1 101254
21:00+15с3484100 2.2 101391
21 сентября, вт
вт2100:00+14ююв22858 0.1 101322
03:00+14ю228717 0.1 101310
06:00+15юз4585100 0.0 101375
09:00+18юз466636 0.1 1014304
12:00+24зюз793928 0.0 10131859
15:00+22зюз793287 0.0 10131850
18:00+18з4739100 0.0 1013192
21:00+16зюз2444100 0.0 101380
22 сентября, ср
ср2200:00+17ююз3745100 0.0 1013272
03:00+15ююз3469100 0.3 1012202
06:00+14юз257263 0.0 1012459
09:00+17зюз575918 0.1 10121275
12:00+19з56354 0.0 10121851
15:00+19з463310 0.0 10112195
18:00+16зсз354510 0.0 1012105
21:00+13ссз34555 0.0 101362
23 сентября, чт
чт2300:00+12ссз2260100 0.0 101325
03:00+11ссв2261100 0.0 101319
06:00+10св1265100 0.0 101319
09:00+12ссв1156100 0.0 101395
12:00+15вюв214993 0.0 1012647
15:00+16вюв3244100 0.0 10111114
18:00+13в2255100 0.0 101125
21:00+12в2263100 0.0 101018